Youngstown, OH

1:46 AM EDT on May 21, 2018 (GMT -0400)
Youngstown-Warren Regional

Weather History for KYNG - November, 2010

Change the Weather History Date:

Sunday, November 7, 2010

  Actual Average Record
Temperature  
Mean Temperature 36 °F 45 °F  
Max Temperature 44 °F 53 °F 73 °F (1938)
Min Temperature 28 °F 36 °F 20 °F (1967)
Degree Days  
Heating Degree Days 29 20  
Month to date heating degree days 194 137  
Since 1 July heating degree days 745 758  
Cooling Degree Days 0 0  
Month to date cooling degree days 0 0  
Year to date cooling degree days 793 544  
Moisture  
Dew Point 25 °F    
Average Humidity 69    
Maximum Humidity 92    
Minimum Humidity 45    
Precipitation  
Precipitation 0.00 in 0.10 in 1.04 in (1977)
Month to date precipitation 0.30 0.73  
Year to date precipitation 30.84 33.47  
Snow  
Snow 0.00 in 0.10 in - ()
Month to date snowfall T 0.4  
Since 1 July snowfall T 1.2  
Since 1 September snowfall T 1.2  
Snow Depth 0.00 in    
Sea Level Pressure  
Sea Level Pressure 30.35 in    
Wind  
Wind Speed 5 mph (SSW)    
Max Wind Speed 13 mph    
Max Gust Speed 16 mph    
Visibility 10 miles    
Events      
T = Trace of Precipitation, MM = Missing Value Source: NWS Daily Summary

Daily Weather History Graph

Daily Weather History Graph

Search for Another Location

Airport or City:

Astronomy

Nov. 07, 2010 Rise Set
Actual Time 7:01 AM EST 5:11 PM EST
Civil Twilight 6:32 AM EST 5:40 PM EST
Nautical Twilight 5:59 AM EST 6:13 PM EST
Astronomical Twilight 5:26 AM EST 6:45 PM EST
Moon 8:47 AM EST (11/7) 6:06 PM EST (11/7)
Length of Visible Light 11h 08m
Length of Day
10h 09m
Waxing Crescent, 3% of the Moon is Illuminated
Nov 7
Waxing Crescent
Nov 13
First Quarter
Nov 21
Full
Nov 28
Last Quarter
Dec 5
New

Hourly Weather History & Observations

Time (EST) Temp. Windchill Dew Point Humidity Pressure Visibility Wind Dir Wind Speed Gust Speed Precip Events Conditions
12:51 AM 32.0 °F - 27.0 °F 82% 30.40 in 10.0 mi Calm Calm - N/A   Mostly Cloudy
12:58 AM 32.0 °F 28.7 °F 26.6 °F 80% 30.36 in 10.0 mi SW 3.5 mph - N/A   Scattered Clouds
1:51 AM 30.9 °F 27.5 °F 27.0 °F 85% 30.41 in 10.0 mi SW 3.5 mph - N/A   Scattered Clouds
1:51 AM 30.0 °F 26.5 °F 27.0 °F 88% 30.41 in 10.0 mi SSW 3.5 mph - N/A   Scattered Clouds
2:51 AM 28.9 °F - 26.1 °F 89% 30.42 in 10.0 mi Calm Calm - N/A   Mostly Cloudy
3:51 AM 28.9 °F - 26.1 °F 89% 30.43 in 10.0 mi Calm Calm - N/A   Mostly Cloudy
4:51 AM 28.0 °F 24.2 °F 25.0 °F 88% 30.44 in 10.0 mi SSW 3.5 mph - N/A   Scattered Clouds
5:51 AM 28.9 °F 25.2 °F 25.0 °F 85% 30.44 in 10.0 mi SSW 3.5 mph - N/A   Mostly Cloudy
6:51 AM 28.9 °F - 25.0 °F 85% 30.45 in 10.0 mi Calm Calm - N/A   Overcast
7:51 AM 30.0 °F 25.2 °F 25.0 °F 82% 30.45 in 10.0 mi South 4.6 mph - N/A   Overcast
8:51 AM 34.0 °F 29.8 °F 26.1 °F 73% 30.45 in 10.0 mi SW 4.6 mph - N/A   Overcast
9:51 AM 36.0 °F 29.6 °F 24.1 °F 62% 30.44 in 10.0 mi WSW 8.1 mph - N/A   Overcast
10:51 AM 37.9 °F 32.1 °F 23.0 °F 55% 30.42 in 10.0 mi SSW 8.1 mph - N/A   Mostly Cloudy
11:51 AM 39.9 °F 34.5 °F 23.0 °F 51% 30.37 in 10.0 mi SW 8.1 mph - N/A   Mostly Cloudy
12:51 PM 43.0 °F 38.2 °F 24.1 °F 47% 30.34 in 10.0 mi SW 8.1 mph - N/A   Mostly Cloudy
1:51 PM 44.1 °F 39.0 °F 25.0 °F 47% 30.32 in 10.0 mi SW 9.2 mph - N/A   Mostly Cloudy
2:51 PM 43.0 °F 38.2 °F 24.1 °F 47% 30.29 in 10.0 mi WSW 8.1 mph - N/A   Mostly Cloudy
3:51 PM 41.0 °F 38.0 °F 25.0 °F 53% 30.29 in 10.0 mi South 4.6 mph - N/A   Scattered Clouds
4:51 PM 41.0 °F 37.1 °F 26.1 °F 55% 30.26 in 10.0 mi SSE 5.8 mph - N/A   Scattered Clouds
5:51 PM 37.9 °F 33.5 °F 25.0 °F 60% 30.25 in 10.0 mi SSE 5.8 mph - N/A   Scattered Clouds
6:51 PM 37.0 °F 33.3 °F 25.0 °F 62% 30.24 in 10.0 mi South 4.6 mph - N/A   Partly Cloudy
7:51 PM 37.9 °F 33.5 °F 24.1 °F 57% 30.22 in 10.0 mi South 5.8 mph - N/A   Scattered Clouds
8:51 PM 37.0 °F 32.4 °F 24.1 °F 59% 30.20 in 10.0 mi South 5.8 mph - N/A   Scattered Clouds
9:51 PM 37.0 °F 33.3 °F 23.0 °F 57% 30.19 in 10.0 mi SSW 4.6 mph - N/A   Partly Cloudy
10:51 PM 35.6 °F 31.7 °F 23.0 °F 60% 30.15 in 10.0 mi South 4.6 mph - N/A   Partly Cloudy